This is the latest recevied weather packets stored in our database for station/object IZ3MEZ-13. If no packets are shown the sender has not sent any weather packets the latest 10 day(s).
| Time | Temp. | Humidity | Pressure | Rain* | Wind** | Luminosity | Snow |
|---|---|---|---|---|---|---|---|
| 1778051120 | 15.56° C | 94% | 1012.5 hPa | 0 mm | - | 85 W/m² | - |
| 1778050519 | 15.56° C | 94% | 1012.3 hPa | 0 mm | - | 58 W/m² | - |
| 1778049918 | 15° C | 94% | 1012.3 hPa | 0 mm | - | 39 W/m² | - |
| 1778049317 | 15° C | 94% | 1012.2 hPa | 0 mm | - | 98 W/m² | - |
| 1778048717 | 14.44° C | 94% | 1012.4 hPa | 0 mm | - | 59 W/m² | - |
| 1778048118 | 14.44° C | 94% | 1012.4 hPa | 0 mm | - | 38 W/m² | - |
| 1778047517 | 13.89° C | 94% | 1012.4 hPa | 0 mm | - | 45 W/m² | - |
| 1778046925 | 13.89° C | 94% | 1012.5 hPa | 0 mm | - | 36 W/m² | - |
| 1778046318 | 13.33° C | 94% | 1012.6 hPa | 0 mm | - | 7 W/m² | - |
| 1778045719 | 13.33° C | 94% | 1012.6 hPa | 0 mm | - | 7 W/m² | - |
| 1778045121 | 13.33° C | 94% | 1012.6 hPa | 0 mm | - | 7 W/m² | - |
| 1778044520 | 13.33° C | 94% | 1012.8 hPa | 0 mm | - | 7 W/m² | - |
| 1778043917 | 13.33° C | 94% | 1012.9 hPa | 0 mm | - | 3 W/m² | - |
| 1778043329 | 13.33° C | 94% | 1012.7 hPa | 0 mm | - | 3 W/m² | - |
| 1778042722 | 13.33° C | 94% | 1012.4 hPa | 0.25 mm | - | 3 W/m² | - |
| 1778042121 | 13.33° C | 94% | 1012.3 hPa | 0.25 mm | - | 3 W/m² | - |
| 1778041517 | 13.33° C | 94% | 1012.3 hPa | 0.25 mm | - | 0 W/m² | - |
| 1778040924 | 13.33° C | 94% | 1012.4 hPa | 0.25 mm | - | 0 W/m² | - |
| 1778040329 | 12.78° C | 94% | 1012.3 hPa | 0 mm | - | 0 W/m² | - |
| 1778039719 | 12.78° C | 94% | 1012.2 hPa | 0 mm | - | 0 W/m² | - |
| 1778039120 | 12.78° C | 94% | 1012.6 hPa | 0 mm | - | 0 W/m² | - |
| 1778038523 | 12.78° C | 94% | 1012.6 hPa | 0 mm | - | 0 W/m² | - |
| 1778037919 | 12.78° C | 94% | 1012.8 hPa | 0 mm | - | 0 W/m² | - |
| 1778037324 | 12.78° C | 94% | 1012.8 hPa | 0 mm | - | 0 W/m² | - |
| 1778036723 | 12.78° C | 93% | 1012.8 hPa | 0 mm | - | 0 W/m² | - |
* Rain latest hour (hover to see other rain measurements)
** Current wind speed in m/s (hover to see current wind gust speed)